| time (UTC) | temp F | wind direction | speed MPH | gust MPH | rain 1hr in | rain 24hr in | rain mn in | humidity % | barometer mb |
| 20260906133057 | 58 | 65 | 13.0 | 18.0 | 0.00 | 0.19 | 0.02 | 1 | 1018.9 |
| 20260906132518 | 58 | 40 | 12.0 | 17.0 | 0.00 | 0.19 | 0.02 | 1 | 1018.9 |
| 20260906132017 | 58 | 57 | 12.0 | 17.0 | 0.00 | 0.19 | 0.02 | 1 | 1019.2 |
| 20260906131600 | 58 | 38 | 7.0 | 11.0 | 0.00 | 0.19 | 0.02 | 1 | 1019.2 |
| 20260906131020 | 58 | 32 | 1.0 | 4.0 | 0.00 | 0.19 | 0.02 | 1 | 1019.1 |
| 20260906130519 | 58 | 5 | 1.0 | 8.0 | 0.00 | 0.19 | 0.02 | 1 | 1019.3 |
| 20260906130052 | 59 | 216 | 0.0 | 10.0 | 0.00 | 0.19 | 0.02 | 1 | 1019.3 |
| 20260906125519 | 59 | 13 | 4.0 | 15.0 | 0.00 | 0.19 | 0.02 | 1 | 1019.3 |
| 20260906125017 | 59 | 11 | 9.0 | 16.0 | 0.00 | 0.19 | 0.02 | 1 | 1019.3 |
| 20260906124550 | 58 | 35 | 7.0 | 12.0 | 0.00 | 0.19 | 0.02 | 1 | 1019.3 |
| 20260906124021 | 58 | 27 | 8.0 | 13.0 | 0.00 | 0.19 | 0.02 | 1 | 1019.2 |
| 20260906123518 | 57 | 32 | 6.0 | 11.0 | 0.00 | 0.19 | 0.02 | 1 | 1019.2 |
| 20260906123052 | 57 | 13 | 6.0 | 11.0 | 0.00 | 0.19 | 0.02 | 1 | 1019.4 |
| 20260906122519 | 57 | 305 | 2.0 | 8.0 | 0.00 | 0.19 | 0.02 | 1 | 1019.5 |
| 20260906122019 | 57 | 18 | 3.0 | 12.0 | 0.00 | 0.19 | 0.02 | 1 | 1019.7 |
| 20260906121542 | 58 | 294 | 8.0 | 19.0 | 0.00 | 0.19 | 0.02 | 1 | 1019.8 |
| 20260906121024 | 58 | 11 | 11.0 | 24.0 | 0.00 | 0.19 | 0.02 | 1 | 1019.7 |
| 20260906120518 | 58 | 54 | 18.0 | 24.0 | 0.00 | 0.19 | 0.02 | 1 | 1019.2 |
| 20260906120056 | 58 | 44 | 13.0 | 25.0 | 0.00 | 0.19 | 0.02 | 1 | 1019.3 |
| 20260906115516 | 58 | 29 | 20.0 | 25.0 | 0.00 | 0.19 | 0.02 | 1 | 1019.0 |
| 20260906115017 | 57 | 82 | 12.0 | 17.0 | 0.00 | 0.19 | 0.02 | 1 | 1019.3 |
| 20260906114553 | 57 | 55 | 11.0 | 15.0 | 0.00 | 0.19 | 0.02 | 1 | 1019.5 |
| 20260906114020 | 56 | 54 | 10.0 | 15.0 | 0.00 | 0.19 | 0.02 | 1 | 1019.4 |
| 20260906113519 | 57 | 71 | 3.0 | 19.0 | 0.00 | 0.19 | 0.02 | 1 | 1019.5 |
| 20260906113050 | 57 | 41 | 11.0 | 22.0 | 0.00 | 0.19 | 0.02 | 1 | 1019.4 |
| 20260906112519 | 57 | 36 | 14.0 | 22.0 | 0.00 | 0.19 | 0.02 | 1 | 1018.8 |
| 20260906112017 | 57 | 35 | 12.0 | 18.0 | 0.00 | 0.19 | 0.02 | 1 | 1019.1 |
| 20260906111548 | 58 | 38 | 8.0 | 20.0 | 0.00 | 0.19 | 0.02 | 1 | 1018.9 |
| 20260906111018 | 58 | 55 | 9.0 | 17.0 | 0.00 | 0.19 | 0.02 | 1 | 1019.1 |
| 20260906110517 | 59 | 269 | 9.0 | 17.0 | 0.00 | 0.19 | 0.02 | 1 | 1018.7 |
| 20260906110049 | 60 | 44 | 3.0 | 13.0 | 0.00 | 0.19 | 0.02 | 1 | 1019.3 |
| 20260906105520 | 59 | 337 | 6.0 | 14.0 | 0.00 | 0.19 | 0.02 | 1 | 1019.2 |
| 20260906105022 | 60 | 346 | 7.0 | 16.0 | 0.00 | 0.19 | 0.02 | 1 | 1019.3 |
| 20260906104549 | 60 | 5 | 7.0 | 16.0 | 0.00 | 0.19 | 0.02 | 1 | 1019.3 |
| 20260906104019 | 58 | 97 | 6.0 | 22.0 | 0.00 | 0.19 | 0.02 | 1 | 1019.3 |
| 20260906103520 | 58 | 294 | 3.0 | 24.0 | 0.00 | 0.19 | 0.02 | 1 | 1019.5 |
| 20260906103052 | 58 | 263 | 12.0 | 24.0 | 0.00 | 0.19 | 0.02 | 1 | 1019.1 |
| 20260906102519 | 57 | 261 | 9.0 | 24.0 | 0.00 | 0.19 | 0.02 | 1 | 1019.3 |
| 20260906102016 | 57 | 232 | 8.0 | 17.0 | 0.00 | 0.19 | 0.02 | 1 | 1018.9 |
| 20260906101549 | 57 | 311 | 9.0 | 16.0 | 0.00 | 0.19 | 0.02 | 1 | 1019.0 |
| 20260906101020 | 57 | 305 | 10.0 | 16.0 | 0.00 | 0.19 | 0.02 | 1 | 1019.5 |
| 20260906100523 | 57 | 297 | 9.0 | 12.0 | 0.00 | 0.19 | 0.02 | 1 | 1019.6 |
| 20260906100045 | 56 | 360 | 7.0 | 12.0 | 0.00 | 0.19 | 0.02 | 1 | 1019.5 |
| 20260906095517 | 56 | 340 | 6.0 | 10.0 | 0.00 | 0.19 | 0.02 | 1 | 1019.4 |
| 20260906095019 | 56 | 5 | 4.0 | 9.0 | 0.00 | 0.19 | 0.02 | 1 | 1019.4 |
| 20260906094557 | 56 | 27 | 3.0 | 6.0 | 0.00 | 0.19 | 0.02 | 1 | 1019.5 |
| 20260906094020 | 56 | 352 | 2.0 | 9.0 | 0.00 | 0.19 | 0.02 | 1 | 1019.5 |
| 20260906093518 | 56 | 352 | 2.0 | 21.0 | 0.00 | 0.19 | 0.02 | 1 | 1019.6 |
| 20260906093053 | 55 | 30 | 15.0 | 26.0 | 0.00 | 0.19 | 0.02 | 1 | 1019.3 |
| 20260906092518 | 55 | 26 | 20.0 | 26.0 | 0.00 | 0.19 | 0.02 | 1 | 1019.5 |
| 20260906092021 | 55 | 355 | 17.0 | 25.0 | 0.00 | 0.19 | 0.02 | 1 | 1019.3 |
| 20260906091551 | 54 | 24 | 19.0 | 25.0 | 0.00 | 0.19 | 0.02 | 1 | 1019.7 |
| 20260906091021 | 52 | 317 | 16.0 | 26.0 | 0.00 | 0.19 | 0.02 | 1 | 1020.1 |
| 20260906090520 | 52 | 300 | 11.0 | 19.0 | 0.00 | 0.19 | 0.02 | 1 | 1020.8 |
| 20260906090053 | 51 | 244 | 12.0 | 23.0 | 0.00 | 0.19 | 0.02 | 1 | 1021.4 |
| 20260906085519 | 51 | 265 | 17.0 | 23.0 | 0.00 | 0.19 | 0.02 | 1 | 1021.4 |
| 20260906085019 | 51 | 271 | 17.0 | 24.0 | 0.00 | 0.19 | 0.02 | 1 | 1021.0 |
| 20260906084559 | 52 | 297 | 15.0 | 25.0 | 0.00 | 0.19 | 0.02 | 1 | 1020.0 |
| 20260906084025 | 53 | 315 | 11.0 | 25.0 | 0.00 | 0.19 | 0.02 | 1 | 1020.2 |
| 20260906083518 | 54 | 317 | 17.0 | 25.0 | 0.00 | 0.19 | 0.02 | 1 | 1020.0 |
| 20260906083049 | 54 | 338 | 15.0 | 26.0 | 0.00 | 0.19 | 0.02 | 1 | 1019.6 |
| 20260906082519 | 53 | 352 | 15.0 | 27.0 | 0.00 | 0.19 | 0.02 | 1 | 1019.7 |
| 20260906082019 | 52 | 349 | 19.0 | 29.0 | 0.00 | 0.19 | 0.02 | 1 | 1019.2 |
| 20260906081548 | 52 | 329 | 20.0 | 30.0 | 0.00 | 0.19 | 0.02 | 1 | 1019.7 |
| 20260906081021 | 53 | 336 | 22.0 | 30.0 | 0.00 | 0.19 | 0.02 | 1 | 1019.7 |
| 20260906080521 | 53 | 311 | 16.0 | 24.0 | 0.00 | 0.19 | 0.02 | 1 | 1019.6 |
| 20260906075517 | 54 | 328 | 13.0 | 18.0 | 0.00 | 0.19 | 0.02 | 1 | 1020.3 |
| 20260906075017 | 55 | 338 | 9.0 | 15.0 | 0.00 | 0.19 | 0.02 | 1 | 1020.3 |
| 20260906074556 | 55 | 338 | 12.0 | 18.0 | 0.00 | 0.19 | 0.02 | 1 | 1020.0 |
| 20260906074018 | 54 | 9 | 12.0 | 20.0 | 0.00 | 0.19 | 0.02 | 1 | 1019.9 |
| 20260906073517 | 54 | 5 | 13.0 | 20.0 | 0.00 | 0.19 | 0.02 | 1 | 1020.2 |
| 20260906073054 | 54 | 5 | 13.0 | 20.0 | 0.00 | 0.19 | 0.02 | 1 | 1020.3 |
| 20260906072518 | 54 | 5 | 14.0 | 22.0 | 0.00 | 0.19 | 0.02 | 1 | 1020.3 |
| 20260906072020 | 54 | 342 | 16.0 | 23.0 | 0.00 | 0.19 | 0.02 | 1 | 1020.5 |
| 20260906071552 | 54 | 326 | 16.0 | 24.0 | 0.00 | 0.19 | 0.02 | 1 | 1020.5 |
| 20260906071024 | 54 | 347 | 16.0 | 24.0 | 0.00 | 0.19 | 0.02 | 1 | 1020.8 |
| 20260906070521 | 54 | 338 | 12.0 | 21.0 | 0.01 | 0.19 | 0.02 | 1 | 1021.0 |
| 20260906070059 | 54 | 5 | 13.0 | 21.0 | 0.02 | 0.19 | 0.02 | 1 | 1021.0 |
| 20260906065520 | 54 | 350 | 16.0 | 23.0 | 0.02 | 0.19 | 0.02 | 1 | 1020.9 |
| 20260906065018 | 53 | 350 | 15.0 | 23.0 | 0.02 | 0.19 | 0.02 | 1 | 1021.0 |
| 20260906064552 | 53 | 355 | 16.0 | 26.0 | 0.02 | 0.19 | 0.02 | 1 | 1021.0 |
| 20260906064021 | 53 | 360 | 19.0 | 27.0 | 0.02 | 0.19 | 0.02 | 1 | 1020.9 |
| 20260906063520 | 53 | 336 | 19.0 | 27.0 | 0.02 | 0.19 | 0.02 | 1 | 1021.4 |
| 20260906063102 | 53 | 334 | 18.0 | 25.0 | 0.02 | 0.19 | 0.02 | 1 | 1021.4 |
| 20260906062523 | 54 | 319 | 15.0 | 21.0 | 0.02 | 0.19 | 0.02 | 1 | 1022.0 |
| 20260906062019 | 54 | 305 | 14.0 | 19.0 | 0.02 | 0.19 | 0.02 | 1 | 1022.0 |
| 20260906061550 | 54 | 328 | 14.0 | 20.0 | 0.02 | 0.19 | 0.02 | 1 | 1021.8 |
| 20260906061020 | 54 | 325 | 14.0 | 20.0 | 0.02 | 0.19 | 0.02 | 1 | 1021.7 |
| 20260906060518 | 54 | 349 | 11.0 | 17.0 | 0.01 | 0.17 | 0.00 | 1 | 1021.8 |
| 20260906060133 | 54 | 303 | 10.0 | 15.0 | 0.01 | 0.17 | 0.00 | 1 | 1021.9 |
| 20260906055517 | 54 | 309 | 6.0 | 12.0 | 0.02 | 0.17 | 0.17 | 1 | 1021.5 |
| 20260906055020 | 54 | 340 | 8.0 | 13.0 | 0.02 | 0.17 | 0.17 | 1 | 1021.2 |
| 20260906054606 | 54 | 323 | 10.0 | 14.0 | 0.02 | 0.17 | 0.17 | 1 | 1021.2 |
| 20260906054021 | 54 | 317 | 10.0 | 14.0 | 0.02 | 0.17 | 0.17 | 1 | 1021.4 |
| 20260906053520 | 54 | 330 | 10.0 | 16.0 | 0.02 | 0.17 | 0.17 | 1 | 1021.4 |
| 20260906053056 | 54 | 360 | 10.0 | 16.0 | 0.02 | 0.17 | 0.17 | 1 | 1021.4 |
| 20260906052519 | 54 | 348 | 10.0 | 21.0 | 0.02 | 0.17 | 0.17 | 1 | 1021.7 |
| 20260906052019 | 54 | 360 | 14.0 | 22.0 | 0.02 | 0.17 | 0.17 | 1 | 1021.5 |
| 20260906051601 | 53 | 309 | 14.0 | 24.0 | 0.02 | 0.17 | 0.17 | 1 | 1021.4 |
| 20260906051021 | 53 | 321 | 15.0 | 24.0 | 0.02 | 0.17 | 0.17 | 1 | 1021.1 |
| 20260906050525 | 54 | 334 | 19.0 | 25.0 | 0.01 | 0.16 | 0.16 | 1 | 1020.6 |
| 20260906045521 | 55 | 314 | 13.0 | 16.0 | 0.00 | 0.14 | 0.14 | 1 | 1022.6 |
| 20260906045017 | 55 | 329 | 5.0 | 10.0 | 0.01 | 0.14 | 0.14 | 1 | 1022.3 |
| 20260906044559 | 55 | 283 | 5.0 | 9.0 | 0.02 | 0.14 | 0.14 | 1 | 1021.4 |
| 20260906044023 | 55 | 325 | 4.0 | 8.0 | 0.04 | 0.14 | 0.14 | 1 | 1020.8 |
| 20260906043526 | 55 | 331 | 4.0 | 10.0 | 0.06 | 0.14 | 0.14 | 1 | 1020.6 |
| 20260906043037 | 55 | 335 | 7.0 | 15.0 | 0.08 | 0.14 | 0.14 | 1 | 1020.5 |
| 20260906042518 | 55 | 5 | 10.0 | 16.0 | 0.08 | 0.14 | 0.14 | 1 | 1020.4 |
| 20260906042016 | 55 | 313 | 11.0 | 15.0 | 0.08 | 0.14 | 0.14 | 1 | 1020.5 |
| 20260906041538 | 55 | 329 | 9.0 | 16.0 | 0.08 | 0.14 | 0.14 | 1 | 1020.8 |
| 20260906041018 | 55 | 334 | 9.0 | 16.0 | 0.08 | 0.14 | 0.14 | 1 | 1020.7 |
| 20260906040517 | 54 | 344 | 11.0 | 16.0 | 0.08 | 0.14 | 0.14 | 1 | 1020.8 |
| 20260906040039 | 54 | 332 | 10.0 | 21.0 | 0.08 | 0.14 | 0.14 | 1 | 1021.0 |
| 20260906035517 | 54 | 345 | 13.0 | 26.0 | 0.08 | 0.14 | 0.14 | 1 | 1021.0 |
| 20260906035017 | 54 | 347 | 19.0 | 26.0 | 0.07 | 0.14 | 0.14 | 1 | 1019.8 |
| 20260906034553 | 55 | 347 | 15.0 | 21.0 | 0.04 | 0.12 | 0.12 | 1 | 1021.3 |
| 20260906034019 | 55 | 318 | 13.0 | 17.0 | 0.03 | 0.09 | 0.09 | 1 | 1022.3 |
| 20260906033518 | 56 | 324 | 11.0 | 15.0 | 0.01 | 0.08 | 0.08 | 1 | 1022.1 |
| 20260906033046 | 57 | 303 | 7.0 | 17.0 | 0.00 | 0.07 | 0.07 | 1 | 1022.3 |
| 20260906032517 | 58 | 312 | 11.0 | 19.0 | 0.00 | 0.07 | 0.07 | 1 | 1021.7 |
| 20260906032016 | 59 | 306 | 11.0 | 24.0 | 0.00 | 0.07 | 0.07 | 1 | 1020.9 |
| 20260906031535 | 59 | 339 | 16.0 | 24.0 | 0.00 | 0.07 | 0.07 | 1 | 1020.4 |
| 20260906031017 | 59 | 331 | 14.0 | 22.0 | 0.00 | 0.07 | 0.07 | 1 | 1020.4 |
| 20260906030519 | 59 | 313 | 16.0 | 21.0 | 0.00 | 0.07 | 0.07 | 1 | 1020.2 |
| 20260906030041 | 59 | 304 | 14.0 | 20.0 | 0.00 | 0.07 | 0.07 | 1 | 1020.0 |
| 20260906025520 | 59 | 285 | 14.0 | 23.0 | 0.00 | 0.07 | 0.07 | 1 | 1019.7 |
| 20260906025018 | 59 | 311 | 11.0 | 19.0 | 0.00 | 0.07 | 0.07 | 1 | 1019.6 |
| 20260906024540 | 58 | 309 | 10.0 | 22.0 | 0.00 | 0.07 | 0.07 | 1 | 1019.6 |
| 20260906024019 | 58 | 315 | 11.0 | 21.0 | 0.00 | 0.07 | 0.07 | 1 | 1019.2 |
| 20260906023518 | 58 | 330 | 14.0 | 21.0 | 0.00 | 0.07 | 0.07 | 1 | 1019.3 |
| 20260906023039 | 58 | 342 | 14.0 | 21.0 | 0.00 | 0.07 | 0.07 | 1 | 1019.3 |
| 20260906022517 | 57 | 352 | 15.0 | 20.0 | 0.00 | 0.07 | 0.07 | 1 | 1019.3 |
| 20260906022017 | 58 | 319 | 15.0 | 20.0 | 0.00 | 0.07 | 0.07 | 1 | 1019.5 |
| 20260906021544 | 58 | 355 | 14.0 | 21.0 | 0.00 | 0.07 | 0.07 | 1 | 1019.5 |
| 20260906021017 | 58 | 345 | 14.0 | 21.0 | 0.00 | 0.07 | 0.07 | 1 | 1019.2 |
| 20260906020515 | 58 | 341 | 15.0 | 20.0 | 0.00 | 0.07 | 0.07 | 1 | 1019.0 |
| 20260906020039 | 59 | 340 | 14.0 | 19.0 | 0.00 | 0.07 | 0.07 | 1 | 1019.3 |
| 20260906015516 | 59 | 344 | 13.0 | 19.0 | 0.00 | 0.07 | 0.07 | 1 | 1019.2 |
| 20260906015018 | 59 | 323 | 13.0 | 19.0 | 0.00 | 0.07 | 0.07 | 1 | 1019.4 |
| 20260906014548 | 60 | 320 | 12.0 | 16.0 | 0.00 | 0.07 | 0.07 | 1 | 1019.6 |
| 20260906014018 | 60 | 325 | 10.0 | 14.0 | 0.00 | 0.07 | 0.07 | 1 | 1019.6 |
| 20260906013518 | 60 | 325 | 9.0 | 16.0 | 0.00 | 0.07 | 0.07 | 1 | 1019.5 |
| 20260906013038 | 61 | 296 | 10.0 | 15.0 | 0.00 | 0.07 | 0.07 | 1 | 1019.3 |
| 20260906012516 | 61 | 318 | 11.0 | 15.0 | 0.00 | 0.07 | 0.07 | 1 | 1019.5 |
| 20260906012015 | 61 | 348 | 8.0 | 14.0 | 0.00 | 0.07 | 0.07 | 1 | 1019.6 |
| 20260906011542 | 61 | 320 | 11.0 | 16.0 | 0.00 | 0.07 | 0.07 | 1 | 1019.4 |
| 20260906011016 | 61 | 346 | 10.0 | 16.0 | 0.00 | 0.07 | 0.07 | 1 | 1019.5 |
| 20260906010517 | 61 | 330 | 9.0 | 18.0 | 0.00 | 0.07 | 0.07 | 1 | 1019.5 |
| 20260906010043 | 61 | 323 | 13.0 | 20.0 | 0.00 | 0.07 | 0.07 | 1 | 1019.4 |
| 20260906005518 | 61 | 340 | 13.0 | 21.0 | 0.00 | 0.07 | 0.07 | 1 | 1019.5 |
| 20260906005016 | 61 | 350 | 13.0 | 23.0 | 0.00 | 0.07 | 0.07 | 1 | 1019.6 |
| 20260906004549 | 61 | 344 | 16.0 | 22.0 | 0.00 | 0.07 | 0.07 | 1 | 1019.6 |
| 20260906004017 | 62 | 336 | 12.0 | 21.0 | 0.00 | 0.07 | 0.07 | 1 | 1019.5 |
| 20260906003516 | 62 | 346 | 15.0 | 23.0 | 0.00 | 0.07 | 0.07 | 1 | 1019.4 |
| 20260906003042 | 62 | 329 | 15.0 | 23.0 | 0.00 | 0.07 | 0.07 | 1 | 1019.7 |
| 20260906002515 | 62 | 314 | 12.0 | 20.0 | 0.00 | 0.07 | 0.07 | 1 | 1019.8 |
| 20260906002017 | 62 | 333 | 16.0 | 20.0 | 0.00 | 0.07 | 0.07 | 1 | 1019.4 |
| 20260906001558 | 63 | 352 | 14.0 | 21.0 | 0.00 | 0.07 | 0.07 | 1 | 1019.6 |
| 20260906001016 | 63 | 341 | 16.0 | 21.0 | 0.00 | 0.07 | 0.07 | 1 | 1019.7 |
| 20260906000516 | 63 | 355 | 13.0 | 21.0 | 0.00 | 0.07 | 0.07 | 1 | 1019.9 |
| 20260906000046 | 63 | 355 | 14.0 | 20.0 | 0.00 | 0.07 | 0.07 | 1 | 1020.0 |
| 20260905235517 | 63 | 325 | 13.0 | 19.0 | 0.00 | 0.07 | 0.07 | 1 | 1020.1 |
| 20260905235019 | 63 | 333 | 14.0 | 19.0 | 0.00 | 0.07 | 0.07 | 1 | 1020.1 |
| 20260905234544 | 64 | 340 | 13.0 | 19.0 | 0.00 | 0.07 | 0.07 | 1 | 1020.2 |
| 20260905234016 | 64 | 336 | 12.0 | 19.0 | 0.00 | 0.07 | 0.07 | 1 | 1020.2 |
| 20260905233518 | 64 | 355 | 12.0 | 19.0 | 0.00 | 0.07 | 0.07 | 1 | 1020.0 |
| 20260905233040 | 64 | 333 | 15.0 | 19.0 | 0.00 | 0.07 | 0.07 | 1 | 1019.9 |
| 20260905232520 | 65 | 360 | 13.0 | 18.0 | 0.00 | 0.07 | 0.07 | 1 | 1020.0 |
| 20260905232016 | 65 | 5 | 12.0 | 18.0 | 0.00 | 0.07 | 0.07 | 1 | 1019.7 |
| 20260905231540 | 65 | 328 | 13.0 | 19.0 | 0.00 | 0.07 | 0.07 | 1 | 1019.9 |
| 20260905231019 | 65 | 351 | 10.0 | 19.0 | 0.00 | 0.07 | 0.07 | 1 | 1019.8 |
| 20260905230515 | 65 | 325 | 12.0 | 19.0 | 0.00 | 0.07 | 0.07 | 1 | 1019.9 |
| 20260905230047 | 65 | 317 | 14.0 | 18.0 | 0.00 | 0.07 | 0.07 | 1 | 1019.8 |
| 20260905225520 | 65 | 346 | 11.0 | 19.0 | 0.00 | 0.07 | 0.07 | 1 | 1019.6 |
| 20260905225018 | 65 | 330 | 13.0 | 19.0 | 0.00 | 0.07 | 0.07 | 1 | 1019.8 |
| 20260905224542 | 65 | 340 | 13.0 | 19.0 | 0.00 | 0.07 | 0.07 | 1 | 1019.7 |
| 20260905224018 | 66 | 313 | 9.0 | 18.0 | 0.00 | 0.07 | 0.07 | 1 | 1020.0 |
| 20260905223518 | 65 | 344 | 11.0 | 18.0 | 0.00 | 0.07 | 0.07 | 1 | 1020.2 |
| 20260905223049 | 66 | 302 | 8.0 | 13.0 | 0.00 | 0.07 | 0.07 | 1 | 1020.1 |
| 20260905222517 | 66 | 350 | 8.0 | 14.0 | 0.00 | 0.07 | 0.07 | 1 | 1020.2 |
| 20260905222016 | 66 | 317 | 8.0 | 14.0 | 0.00 | 0.07 | 0.07 | 1 | 1020.3 |
| 20260905221543 | 66 | 296 | 8.0 | 14.0 | 0.00 | 0.07 | 0.07 | 1 | 1020.2 |
| 20260905221019 | 67 | 321 | 5.0 | 13.0 | 0.00 | 0.07 | 0.07 | 1 | 1020.3 |
| 20260905220519 | 67 | 319 | 8.0 | 13.0 | 0.00 | 0.07 | 0.07 | 1 | 1020.2 |
| 20260905220042 | 67 | 326 | 7.0 | 13.0 | 0.00 | 0.07 | 0.07 | 1 | 1020.1 |
| 20260905215518 | 67 | 271 | 7.0 | 12.0 | 0.00 | 0.07 | 0.07 | 1 | 1020.2 |
| 20260905215019 | 67 | 355 | 6.0 | 11.0 | 0.00 | 0.07 | 0.07 | 1 | 1020.2 |
| 20260905214546 | 67 | 322 | 7.0 | 10.0 | 0.00 | 0.07 | 0.07 | 1 | 1020.2 |
| 20260905214017 | 67 | 240 | 5.0 | 10.0 | 0.00 | 0.07 | 0.07 | 1 | 1020.2 |
| 20260905213518 | 67 | 210 | 5.0 | 14.0 | 0.00 | 0.07 | 0.07 | 1 | 1020.3 |
| 20260905213048 | 67 | 311 | 3.0 | 14.0 | 0.00 | 0.07 | 0.07 | 1 | 1020.2 |
| 20260905212524 | 67 | 221 | 7.0 | 13.0 | 0.00 | 0.07 | 0.07 | 1 | 1020.2 |
| 20260905212018 | 67 | 246 | 8.0 | 11.0 | 0.00 | 0.07 | 0.07 | 1 | 1020.2 |
| 20260905211539 | 67 | 226 | 5.0 | 12.0 | 0.00 | 0.07 | 0.07 | 1 | 1020.3 |
| 20260905211018 | 67 | 269 | 5.0 | 12.0 | 0.00 | 0.07 | 0.07 | 1 | 1020.3 |
| 20260905210518 | 67 | 282 | 7.0 | 10.0 | 0.00 | 0.07 | 0.07 | 1 | 1020.3 |
| 20260905210053 | 67 | 323 | 7.0 | 14.0 | 0.00 | 0.07 | 0.07 | 1 | 1020.4 |
| 20260905205516 | 67 | 325 | 6.0 | 14.0 | 0.00 | 0.07 | 0.07 | 1 | 1020.4 |
| 20260905205017 | 67 | 307 | 7.0 | 12.0 | 0.00 | 0.07 | 0.07 | 1 | 1020.3 |
| 20260905204539 | 66 | 296 | 9.0 | 12.0 | 0.00 | 0.07 | 0.07 | 1 | 1020.3 |
| 20260905204020 | 66 | 288 | 6.0 | 12.0 | 0.00 | 0.07 | 0.07 | 1 | 1020.3 |
| 20260905203521 | 65 | 317 | 6.0 | 13.0 | 0.00 | 0.07 | 0.07 | 1 | 1020.3 |
| 20260905203039 | 66 | 338 | 10.0 | 13.0 | 0.00 | 0.07 | 0.07 | 1 | 1020.2 |
| 20260905202518 | 66 | 314 | 8.0 | 13.0 | 0.00 | 0.07 | 0.07 | 1 | 1020.4 |
| 20260905202018 | 66 | 242 | 1.0 | 11.0 | 0.00 | 0.07 | 0.07 | 1 | 1020.4 |
| 20260905201541 | 66 | 241 | 7.0 | 11.0 | 0.00 | 0.07 | 0.07 | 1 | 1020.5 |
| 20260905201017 | 66 | 267 | 2.0 | 9.0 | 0.00 | 0.07 | 0.07 | 1 | 1020.5 |
| 20260905200520 | 66 | 215 | 4.0 | 10.0 | 0.00 | 0.07 | 0.07 | 1 | 1020.5 |
| 20260905200106 | 66 | 301 | 5.0 | 10.0 | 0.00 | 0.07 | 0.07 | 1 | 1020.5 |
| 20260905195518 | 66 | 262 | 4.0 | 10.0 | 0.00 | 0.07 | 0.07 | 1 | 1020.5 |
| 20260905195017 | 66 | 187 | 4.0 | 10.0 | 0.00 | 0.07 | 0.07 | 1 | 1020.5 |
| 20260905194545 | 66 | 342 | 4.0 | 10.0 | 0.00 | 0.07 | 0.07 | 1 | 1020.7 |
| 20260905194018 | 65 | 232 | 6.0 | 10.0 | 0.00 | 0.07 | 0.07 | 1 | 1020.7 |
| 20260905193516 | 65 | 338 | 0.0 | 11.0 | 0.00 | 0.07 | 0.07 | 1 | 1020.6 |
| 20260905193042 | 64 | 355 | 3.0 | 14.0 | 0.00 | 0.07 | 0.07 | 1 | 1020.4 |
| 20260905192518 | 64 | 298 | 6.0 | 10.0 | 0.00 | 0.07 | 0.07 | 1 | 1020.5 |
| 20260905192018 | 64 | 296 | 3.0 | 9.0 | 0.00 | 0.07 | 0.07 | 1 | 1020.6 |
| 20260905191542 | 64 | 275 | 4.0 | 12.0 | 0.00 | 0.07 | 0.07 | 1 | 1020.5 |
| 20260905191020 | 64 | 253 | 8.0 | 12.0 | 0.00 | 0.07 | 0.07 | 1 | 1020.7 |
| 20260905190516 | 64 | 271 | 4.0 | 9.0 | 0.00 | 0.07 | 0.07 | 1 | 1020.7 |
| 20260905190041 | 64 | 294 | 4.0 | 9.0 | 0.00 | 0.07 | 0.07 | 1 | 1020.9 |
| 20260905185518 | 64 | 267 | 6.0 | 9.0 | 0.00 | 0.07 | 0.07 | 1 | 1021.1 |
| 20260905185017 | 63 | 298 | 3.0 | 10.0 | 0.00 | 0.07 | 0.07 | 1 | 1021.0 |
| 20260905184554 | 63 | 257 | 6.0 | 10.0 | 0.00 | 0.07 | 0.07 | 1 | 1021.1 |
| 20260905184018 | 63 | 234 | 5.0 | 10.0 | 0.00 | 0.07 | 0.07 | 1 | 1021.1 |
| 20260905183516 | 63 | 252 | 4.0 | 10.0 | 0.00 | 0.07 | 0.07 | 1 | 1021.0 |
| 20260905183044 | 63 | 287 | 4.0 | 9.0 | 0.00 | 0.07 | 0.07 | 1 | 1020.9 |
| 20260905182518 | 62 | 295 | 3.0 | 10.0 | 0.00 | 0.07 | 0.07 | 1 | 1021.0 |
| 20260905182018 | 62 | 267 | 4.0 | 10.0 | 0.00 | 0.07 | 0.07 | 1 | 1021.0 |
| 20260905181546 | 62 | 241 | 2.0 | 6.0 | 0.00 | 0.07 | 0.07 | 1 | 1021.1 |
| 20260905181017 | 62 | 340 | 2.0 | 5.0 | 0.00 | 0.07 | 0.07 | 1 | 1021.1 |
| 20260905180519 | 62 | 316 | 1.0 | 4.0 | 0.00 | 0.07 | 0.07 | 1 | 1021.1 |
| 20260905180042 | 61 | 316 | 2.0 | 5.0 | 0.00 | 0.07 | 0.07 | 1 | 1021.1 |
| 20260905175525 | 61 | 316 | 3.0 | 5.0 | 0.00 | 0.07 | 0.07 | 1 | 1021.0 |
| 20260905175019 | 61 | 316 | 1.0 | 5.0 | 0.00 | 0.07 | 0.07 | 1 | 1020.9 |
| 20260905174540 | 60 | 302 | 4.0 | 5.0 | 0.00 | 0.07 | 0.07 | 1 | 1020.9 |
| 20260905174018 | 60 | 345 | 2.0 | 6.0 | 0.00 | 0.07 | 0.07 | 1 | 1021.0 |
| 20260905173519 | 60 | 313 | 4.0 | 8.0 | 0.00 | 0.07 | 0.07 | 1 | 1020.8 |
| 20260905173050 | 60 | 335 | 5.0 | 8.0 | 0.00 | 0.07 | 0.07 | 1 | 1020.8 |
| 20260905172518 | 60 | 319 | 3.0 | 8.0 | 0.00 | 0.07 | 0.07 | 1 | 1020.9 |
| 20260905172018 | 60 | 315 | 4.0 | 8.0 | 0.00 | 0.07 | 0.07 | 1 | 1020.7 |
| 20260905171540 | 59 | 319 | 3.0 | 8.0 | 0.00 | 0.07 | 0.07 | 1 | 1021.0 |
| 20260905171018 | 59 | 303 | 3.0 | 8.0 | 0.00 | 0.07 | 0.07 | 1 | 1020.9 |
| 20260905170522 | 58 | 299 | 3.0 | 8.0 | 0.00 | 0.07 | 0.07 | 1 | 1020.8 |
| 20260905170038 | 58 | 299 | 5.0 | 10.0 | 0.00 | 0.07 | 0.07 | 1 | 1021.0 |
| 20260905165517 | 58 | 286 | 6.0 | 11.0 | 0.00 | 0.07 | 0.07 | 1 | 1020.8 |
| 20260905165023 | 58 | 279 | 8.0 | 11.0 | 0.00 | 0.07 | 0.07 | 1 | 1020.6 |
| 20260905164545 | 57 | 296 | 6.0 | 11.0 | 0.00 | 0.07 | 0.07 | 1 | 1020.8 |
| 20260905164020 | 57 | 310 | 7.0 | 11.0 | 0.00 | 0.07 | 0.07 | 1 | 1020.8 |
| 20260905163519 | 56 | 288 | 5.0 | 9.0 | 0.00 | 0.07 | 0.07 | 1 | 1020.8 |
| 20260905163043 | 55 | 262 | 5.0 | 10.0 | 0.00 | 0.07 | 0.07 | 1 | 1021.0 |
| 20260905162518 | 55 | 269 | 6.0 | 11.0 | 0.00 | 0.07 | 0.07 | 1 | 1021.0 |
| 20260905162020 | 54 | 273 | 8.0 | 11.0 | 0.00 | 0.07 | 0.07 | 1 | 1020.7 |
| 20260905161541 | 54 | 263 | 8.0 | 11.0 | 0.00 | 0.07 | 0.07 | 1 | 1020.8 |
| 20260905161023 | 54 | 265 | 8.0 | 12.0 | 0.00 | 0.07 | 0.07 | 1 | 1020.7 |
| 20260905160519 | 54 | 246 | 9.0 | 12.0 | 0.00 | 0.07 | 0.07 | 1 | 1020.8 |
| 20260905160045 | 54 | 231 | 7.0 | 11.0 | 0.00 | 0.07 | 0.07 | 1 | 1020.8 |
| 20260905155518 | 55 | 215 | 3.0 | 5.0 | 0.00 | 0.07 | 0.07 | 1 | 1020.7 |
| 20260905155017 | 55 | 256 | 3.0 | 4.0 | 0.00 | 0.07 | 0.07 | 1 | 1020.7 |
| 20260905154545 | 55 | 256 | 1.0 | 7.0 | 0.00 | 0.07 | 0.07 | 1 | 1020.5 |
| 20260905154018 | 55 | 256 | 1.0 | 7.0 | 0.00 | 0.07 | 0.07 | 1 | 1020.3 |
| 20260905153518 | 55 | 304 | 3.0 | 8.0 | 0.01 | 0.07 | 0.07 | 1 | 1020.3 |
| 20260905153039 | 55 | 304 | 3.0 | 10.0 | 0.01 | 0.07 | 0.07 | 1 | 1020.2 |
| 20260905152523 | 55 | 312 | 5.0 | 10.0 | 0.01 | 0.07 | 0.07 | 1 | 1020.1 |
| 20260905152019 | 54 | 344 | 7.0 | 10.0 | 0.01 | 0.07 | 0.07 | 1 | 1020.1 |
| 20260905151555 | 54 | 310 | 7.0 | 9.0 | 0.01 | 0.07 | 0.07 | 1 | 1020.3 |
| 20260905151021 | 54 | 313 | 5.0 | 8.0 | 0.01 | 0.07 | 0.07 | 1 | 1020.2 |
| 20260905150521 | 53 | 309 | 2.0 | 6.0 | 0.01 | 0.07 | 0.07 | 1 | 1020.4 |
| 20260905150046 | 53 | 304 | 3.0 | 10.0 | 0.01 | 0.07 | 0.07 | 1 | 1020.3 |
| 20260905145516 | 53 | 308 | 4.0 | 13.0 | 0.01 | 0.07 | 0.07 | 1 | 1020.2 |
| 20260905145018 | 53 | 315 | 6.0 | 15.0 | 0.02 | 0.07 | 0.07 | 1 | 1020.0 |
| 20260905144546 | 53 | 335 | 9.0 | 15.0 | 0.03 | 0.07 | 0.07 | 1 | 1019.9 |
| 20260905144016 | 52 | 346 | 6.0 | 10.0 | 0.03 | 0.07 | 0.07 | 1 | 1020.1 |
| 20260905143516 | 52 | 304 | 7.0 | 12.0 | 0.03 | 0.06 | 0.06 | 1 | 1020.2 |
| 20260905143039 | 52 | 325 | 9.0 | 12.0 | 0.03 | 0.06 | 0.06 | 1 | 1020.1 |
| 20260905142525 | 52 | 316 | 5.0 | 12.0 | 0.04 | 0.06 | 0.06 | 1 | 1020.0 |
| 20260905142019 | 52 | 331 | 7.0 | 12.0 | 0.04 | 0.06 | 0.06 | 1 | 1020.0 |
| 20260905141546 | 51 | 339 | 7.0 | 10.0 | 0.04 | 0.06 | 0.06 | 1 | 1020.1 |
| 20260905141020 | 51 | 326 | 6.0 | 10.0 | 0.04 | 0.06 | 0.06 | 1 | 1020.1 |
| 20260905140518 | 51 | 301 | 7.0 | 10.0 | 0.06 | 0.06 | 0.06 | 1 | 1020.3 |
| 20260905140054 | 51 | 312 | 6.0 | 9.0 | 0.06 | 0.06 | 0.06 | 1 | 1020.4 |
| 20260905135518 | 51 | 295 | 3.0 | 5.0 | 0.06 | 0.06 | 0.06 | 1 | 1020.8 |
| 20260905135021 | 51 | 295 | 3.0 | 7.0 | 0.04 | 0.04 | 0.04 | 1 | 1020.9 |
| 20260905134550 | 52 | 295 | 4.0 | 11.0 | 0.04 | 0.04 | 0.04 | 1 | 1020.8 |
| 20260905134021 | 52 | 286 | 8.0 | 13.0 | 0.04 | 0.04 | 0.04 | 1 | 1020.9 |
| 20260905133521 | 52 | 266 | 10.0 | 13.0 | 0.03 | 0.03 | 0.03 | 1 | 1021.1 |